Flag for U.S.A. Weather past 2 weeks in Arden-Arcade, California, U.S.A.

Now
77 °F

Clear.


Feels Like: 78 °F
Forecast: 69 / 93 °F
Wind: 6 mph from North

Location: Sacramento Executive Airport

Current Time: Jul 2, 2015 at 3:38:05 AM

Latest Report: Jul 2, 2015 at 2:53 AM


Visibility: 10 mi

Pressure: 29.83 "Hg

Humidity: 32%

Dew point: 45 °F

Location of Arden-ArcadeLocation

Historic Weather in Arden-Arcade — Graph

°F

Arden-Arcade temperature yesterday

Maximum temperature yesterday: 98 °F (at 4:53 PM)
Minimum temperature yesterday: 71 °F (at 4:53 AM)
Average temperature yesterday: 85 °F

Past Weeks' High & Low Weather Summary

 TemperatureHumidityPressure
High107 °F (Jun 30, 4:53 PM)84% (Jun 21, 5:53 AM)30.01 "Hg (Jun 21, 5:53 AM)
Low56 °F (Jun 21, 5:53 AM)13% (Jun 20, 5:53 PM)29.74 "Hg (Jun 30, 5:53 PM)
Average77 °F45%29.87 "Hg
* Reported Jun 17 3:53 AM — Jul 2 1:53 AM, Arden-Arcade, Weather by CustomWeather, © 2015

Note: Actual official high and low records may vary slightly from our data, if they occured in-between our weather recording intervals... More about our weather records

Advertising

Arden-Arcade weather history for previous 24 hours

 ConditionsComfort  
Time TempWeatherWind HumidityBarometerVisibility
1:53 AM
Thu, Jul 2
77 °FClear.13 mph35%29.83 "Hg10 mi
12:53 AM78 °FClear.13 mph33%29.81 "Hg10 mi
11:53 PM
Wed, Jul 1
80 °FClear.10 mph30%29.80 "Hg10 mi
10:53 PM81 °FClear.12 mph35%29.82 "Hg10 mi
9:53 PM85 °FClear.6 mph39%29.82 "Hg10 mi
8:53 PM92 °FSunny.5 mph29%29.78 "Hg10 mi
7:53 PM97 °FSunny.3 mph24%29.80 "Hg10 mi
6:53 PM97 °FSunny.3 mph19%29.79 "Hg10 mi
5:53 PM96 °FSunny.5 mph20%29.82 "Hg10 mi
4:53 PM98 °FSunny.9 mph17%29.84 "Hg10 mi
3:53 PM97 °FSunny.13 mph19%29.84 "Hg10 mi
2:53 PM96 °FSunny.9 mph21%29.87 "Hg10 mi
1:53 PM95 °FSunny.6 mph21%29.86 "Hg10 mi
12:53 PM92 °FSunny.8 mph30%29.87 "Hg10 mi
11:53 AM88 °FSunny.8 mph34%29.88 "Hg10 mi
10:53 AM87 °FSunny.9 mph39%29.87 "Hg10 mi
9:53 AM84 °FSunny.5 mph41%29.83 "Hg10 mi
8:53 AM79 °FSunny.No wind47%29.81 "Hg10 mi
7:53 AM74 °FSunny.No wind52%29.79 "Hg10 mi
5:53 AM71 °FClear.No wind51%29.76 "Hg10 mi
4:53 AM71 °FClear.3 mph49%29.75 "Hg10 mi
3:53 AM72 °FClear.No wind48%29.74 "Hg10 mi
Weather by CustomWeather, © 2015

See weather overviewHow to use our weather pages